When you browse on this site, cookies collect data to enhance your experience and personalize the content and advertising you see.
Visit our Privacy Policy to learn more. By continuing to use the site, you agree to this use of cookies and data.
  • In Sweden
  • List of Countries
  • For 7 days
  • Water Temperature
  • Weather Map
  • Weather Widgets
  • user-avatar
    Login

    Hourly Weather Thornton

    Today, 6 June, Saturday

    Time Temperature Precipitation Wind Pressure Humidity
    00:00 +25°C° 0 mm 4 mps 629 mmHg 34%
    01:00 +25°C° 0 mm 4 mps 629 mmHg 34%
    02:00 +24°C° 0 mm 3 mps 628 mmHg 34%
    03:00 +24°C° 0 mm 3 mps 628 mmHg 35%
    04:00 +24°C° 0 mm 2 mps 628 mmHg 36%
    05:00 +24°C° 0 mm 2 mps 628 mmHg 36%
    06:00 +25°C° 0 mm 3 mps 629 mmHg 34%
    07:00 +26°C° 0 mm 4 mps 629 mmHg 33%
    08:00 +28°C° 0 mm 5 mps 629 mmHg 31%
    09:00 +28°C° 0 mm 8 mps 629 mmHg 31%
    10:00 +28°C° 0 mm 10 mps 628 mmHg 32%
    11:00 +28°C° 0 mm 13 mps 628 mmHg 32%
    12:00 +27°C° 0.3 mm 11 mps 627 mmHg 36%
    13:00 +26°C° 0.3 mm 9 mps 626 mmHg 39%
    14:00 +26°C° 0.3 mm 8 mps 625 mmHg 43%
    15:00 +28°C° 0 mm 8 mps 626 mmHg 34%
    16:00 +31°C° 0 mm 8 mps 626 mmHg 25%
    17:00 +33°C° 0 mm 8 mps 627 mmHg 16%
    18:00 +30°C° 0 mm 7 mps 627 mmHg 18%
    19:00 +27°C° 0 mm 6 mps 626 mmHg 20%
    20:00 +25°C° 0 mm 5 mps 626 mmHg 22%
    21:00 +23°C° 0 mm 4 mps 626 mmHg 25%
    22:00 +21°C° 0 mm 4 mps 625 mmHg 28%
    23:00 +20°C° 0 mm 4 mps 625 mmHg 32%

    Tomorrow, 7 June, Sunday

    Time Temperature Precipitation Wind Pressure Humidity
    00:00 +19°C° 0 mm 4 mps 625 mmHg 30%
    01:00 +18°C° 0 mm 3 mps 624 mmHg 28%
    02:00 +18°C° 0 mm 3 mps 624 mmHg 26%
    03:00 +17°C° 0 mm 3 mps 623 mmHg 28%
    04:00 +17°C° 0 mm 2 mps 623 mmHg 29%
    05:00 +17°C° 0 mm 2 mps 623 mmHg 30%
    06:00 +19°C° 0 mm 2 mps 624 mmHg 27%
    07:00 +21°C° 0 mm 2 mps 624 mmHg 24%
    08:00 +24°C° 0 mm 1 mps 625 mmHg 21%
    09:00 +26°C° 0 mm 2 mps 625 mmHg 18%
    10:00 +28°C° 0 mm 3 mps 625 mmHg 16%
    11:00 +30°C° 0 mm 4 mps 625 mmHg 14%
    12:00 +32°C° 0 mm 5 mps 625 mmHg 13%
    13:00 +33°C° 0 mm 7 mps 625 mmHg 12%
    14:00 +34°C° 0 mm 9 mps 624 mmHg 11%
    15:00 +34°C° 0 mm 9 mps 624 mmHg 11%
    16:00 +34°C° 0 mm 9 mps 624 mmHg 11%
    17:00 +33°C° 0 mm 9 mps 624 mmHg 12%
    18:00 +31°C° 0 mm 8 mps 624 mmHg 14%
    19:00 +28°C° 0 mm 7 mps 624 mmHg 15%
    20:00 +26°C° 0 mm 6 mps 624 mmHg 17%
    21:00 +25°C° 0 mm 5 mps 624 mmHg 17%
    22:00 +22°C° 0 mm 5 mps 625 mmHg 17%
    23:00 +21°C° 0 mm 4 mps 625 mmHg 17%

    Day after tomorrow, 8 June, Monday

    Time Temperature Precipitation Wind Pressure Humidity
    00:00 +19°C° 0 mm 4 mps 625 mmHg 20%
    01:00 +18°C° 0 mm 3 mps 625 mmHg 24%
    02:00 +16°C° 0 mm 3 mps 625 mmHg 28%
    03:00 +15°C° 0 mm 2 mps 625 mmHg 37%
    04:00 +13°C° 0 mm 2 mps 625 mmHg 47%
    05:00 +12°C° 0 mm 1 mps 625 mmHg 57%
    06:00 +14°C° 0 mm 2 mps 625 mmHg 51%
    07:00 +15°C° 0 mm 2 mps 625 mmHg 46%
    08:00 +17°C° 0 mm 2 mps 626 mmHg 40%
    09:00 +19°C° 0 mm 3 mps 626 mmHg 36%
    10:00 +20°C° 0 mm 5 mps 626 mmHg 33%
    11:00 +22°C° 0 mm 6 mps 626 mmHg 29%
    12:00 +23°C° 0 mm 6 mps 626 mmHg 28%
    13:00 +24°C° 0 mm 7 mps 626 mmHg 27%
    14:00 +26°C° 0 mm 8 mps 626 mmHg 26%
    15:00 +26°C° 0.1 mm 8 mps 625 mmHg 26%
    16:00 +24°C° 0.1 mm 8 mps 625 mmHg 27%
    17:00 +24°C° 0.1 mm 9 mps 625 mmHg 28%
    18:00 +21°C° 0.1 mm 9 mps 625 mmHg 40%
    19:00 +16°C° 0.1 mm 8 mps 625 mmHg 51%
    20:00 +11°C° 0.1 mm 8 mps 624 mmHg 63%
    21:00 +10°C° 0.7 mm 8 mps 625 mmHg 67%
    22:00 +7°C° 0.7 mm 8 mps 625 mmHg 72%
    23:00 +6°C° 0.7 mm 8 mps 626 mmHg 76%

    9 June, Tuesday

    Time Temperature Precipitation Wind Pressure Humidity
    00:00 +7°C° 1.1 mm 6 mps 626 mmHg 76%
    01:00 +6°C° 1.1 mm 5 mps 626 mmHg 76%
    02:00 +7°C° 1.1 mm 3 mps 626 mmHg 76%
    03:00 +7°C° 0 mm 3 mps 626 mmHg 75%
    04:00 +7°C° 0 mm 3 mps 627 mmHg 74%
    05:00 +7°C° 0 mm 2 mps 627 mmHg 72%
    06:00 +9°C° 0 mm 3 mps 627 mmHg 62%
    07:00 +11°C° 0 mm 3 mps 628 mmHg 51%
    08:00 +13°C° 0 mm 4 mps 628 mmHg 41%
    09:00 +14°C° 0 mm 4 mps 629 mmHg 35%
    10:00 +17°C° 0 mm 4 mps 629 mmHg 29%
    11:00 +19°C° 0 mm 4 mps 629 mmHg 22%
    12:00 +20°C° 0 mm 6 mps 629 mmHg 21%
    13:00 +20°C° 0 mm 7 mps 629 mmHg 20%
    14:00 +21°C° 0 mm 9 mps 628 mmHg 19%
    15:00 +21°C° 0 mm 8 mps 628 mmHg 21%
    16:00 +21°C° 0 mm 8 mps 629 mmHg 22%
    17:00 +21°C° 0 mm 8 mps 629 mmHg 24%
    18:00 +18°C° 0 mm 7 mps 629 mmHg 26%
    19:00 +17°C° 0 mm 5 mps 629 mmHg 28%
    20:00 +15°C° 0 mm 4 mps 630 mmHg 30%
    21:00 +14°C° 0 mm 4 mps 630 mmHg 34%
    22:00 +14°C° 0 mm 4 mps 630 mmHg 38%
    23:00 +13°C° 0 mm 4 mps 631 mmHg 42%

    10 June, Wednesday

    Time Temperature Precipitation Wind Pressure Humidity
    00:00 +13°C° 0 mm 3 mps 631 mmHg 43%
    01:00 +13°C° 0 mm 3 mps 631 mmHg 43%
    02:00 +13°C° 0 mm 3 mps 631 mmHg 43%
    03:00 +12°C° 0 mm 3 mps 631 mmHg 43%
    04:00 +12°C° 0 mm 3 mps 631 mmHg 44%
    05:00 +12°C° 0 mm 3 mps 631 mmHg 44%
    06:00 +14°C° 0 mm 3 mps 632 mmHg 39%
    07:00 +17°C° 0 mm 3 mps 632 mmHg 34%
    08:00 +19°C° 0 mm 3 mps 633 mmHg 29%
    09:00 +21°C° 0 mm 3 mps 633 mmHg 27%
    10:00 +22°C° 0 mm 3 mps 633 mmHg 24%
    11:00 +25°C° 0 mm 3 mps 633 mmHg 21%
    12:00 +26°C° 0 mm 3 mps 633 mmHg 20%
    13:00 +26°C° 0 mm 4 mps 633 mmHg 20%
    14:00 +27°C° 0 mm 4 mps 633 mmHg 19%
    15:00 +27°C° 0 mm 5 mps 633 mmHg 20%
    16:00 +27°C° 0 mm 5 mps 633 mmHg 21%
    17:00 +27°C° 0 mm 5 mps 633 mmHg 21%
    18:00 +25°C° 0 mm 5 mps 633 mmHg 25%
    19:00 +22°C° 0 mm 4 mps 633 mmHg 28%
    20:00 +21°C° 0 mm 4 mps 633 mmHg 31%
    21:00 +20°C° 0 mm 3 mps 633 mmHg 33%
    22:00 +19°C° 0 mm 3 mps 633 mmHg 35%
    23:00 +17°C° 0 mm 3 mps 633 mmHg 37%

    11 June, Thursday

    Time Temperature Precipitation Wind Pressure Humidity
    00:00 +17°C° 0 mm 2 mps 633 mmHg 38%
    01:00 +16°C° 0 mm 2 mps 633 mmHg 40%
    02:00 +15°C° 0 mm 1 mps 633 mmHg 42%
    03:00 +15°C° 0 mm 2 mps 633 mmHg 45%
    04:00 +13°C° 0 mm 3 mps 634 mmHg 48%
    05:00 +12°C° 0 mm 3 mps 634 mmHg 51%
    06:00 +13°C° 0 mm 3 mps 634 mmHg 51%
    07:00 +14°C° 0 mm 3 mps 634 mmHg 50%
    08:00 +16°C° 0 mm 3 mps 635 mmHg 50%
    09:00 +18°C° 0 mm 3 mps 635 mmHg 45%
    10:00 +19°C° 0 mm 3 mps 635 mmHg 41%
    11:00 +21°C° 0 mm 3 mps 636 mmHg 36%
    12:00 +24°C° 0 mm 3 mps 636 mmHg 33%
    13:00 +25°C° 0 mm 3 mps 636 mmHg 30%
    14:00 +27°C° 0 mm 4 mps 636 mmHg 27%
    15:00 +27°C° 0 mm 4 mps 636 mmHg 27%
    16:00 +27°C° 0 mm 4 mps 636 mmHg 27%
    17:00 +27°C° 0 mm 5 mps 637 mmHg 28%
    18:00 +25°C° 0.1 mm 4 mps 636 mmHg 35%
    19:00 +22°C° 0.1 mm 4 mps 636 mmHg 42%
    20:00 +20°C° 0.1 mm 4 mps 636 mmHg 50%
    21:00 +19°C° 0.1 mm 4 mps 636 mmHg 53%
    22:00 +18°C° 0.1 mm 4 mps 637 mmHg 56%
    23:00 +17°C° 0.1 mm 4 mps 637 mmHg 59%
    Show more